Simultaneous Nadir Overpasses (SNOs) Predictions

Prediction of SNOs between NOAA-20 and AQUA Satellite Orbit:

Table of predicted SNOs for the next 14.0 days since TLE Epoch: 9/6/2019
Index Date (NOAA-20) Time (NOAA-20) Lat,Lon (NOAA-20) SZA (NOAA-20 ) Date (AQUA) Time (AQUA) Lat,Lon (AQUA) SZA (AQUA ) Distance(km) Time Diff (sec)
1 09/07/2019 14:29:19 76.18,-157.82 91.01 09/07/2019 14:29:38 76.17,-157.91 91.02 2.32 19
2 09/07/2019 15:19:48 -76.93, 12.33 89.92 09/07/2019 15:18:49 -76.93, 12.33 89.87 0.09 59
3 09/10/2019 05:55:51 -75.27, 147.67 86.98 09/10/2019 05:56:59 -75.26, 147.67 87.04 0.29 68
4 09/10/2019 06:46:14 76.24, -41.86 91.88 09/10/2019 06:46:05 76.24, -41.79 91.87 2.01 9
5 09/12/2019 22:12:34 -75.84, -94.76 86.71 09/12/2019 22:13:15 -75.83, -94.82 86.73 1.71 41
6 09/12/2019 23:02:59 76.70, 75.61 92.26 09/12/2019 23:02:23 76.70, 75.61 92.30 0.08 36
7 09/15/2019 14:29:29 -75.90, 21.19 85.83 09/15/2019 14:29:42 -75.90, 21.27 85.86 2.26 13
8 09/15/2019 15:19:45 77.14,-166.81 92.66 09/15/2019 15:18:42 77.13,-166.91 92.74 2.66 63
9 09/18/2019 05:55:54 75.19, -32.55 95.95 09/18/2019 05:56:57 75.20, -32.50 95.88 1.48 63
10 09/18/2019 06:46:13 -76.45, 138.90 85.54 09/18/2019 06:45:59 -76.45, 138.90 85.52 0.15 14




NCC Satellite Simultaneous Nadir Overpasses (SNOs) Prediction Service
